Lid_Strength_Index
3 3 3 3 4 4 4 4 3 4 4 4 4 4 4 4 4 4 3 3 3 3 3 3 2 2 3 6 5 0 -2 -1 2 6 7 8 9 9 11 10 9 10 9 8 8 8 8
3 3 4 4 4 4 4 4 4 4 4 4 4 4 4 4 4 4 4 3 3 3 3 3 2 2 4 9 3 0 2 3 5 6 6 7 7 7 9 9 10 8 8 8 8 7 8
4 4 4 4 4 4 4 4 4 4 4 4 4 4 4 4 4 4 3 4 4 4 3 3 1 3 5 7 2 1 2 5 5 5 6 5 4 7 8 8 7 6 10 8 8 9 8
4 4 4 4 4 4 4 4 4 4 4 4 4 4 4 4 4 4 3 4 4 4 3 1 1 4 7 3 3 3 2 3 4 4 4 3 4 7 8 6 7 9 10 12 9 7 7
4 4 4 4 4 5 4 4 4 4 4 4 4 4 4 4 4 4 4 4 4 3 2 2 4 5 7 2 3 2 2 3 3 4 4 2 5 7 7 9 11 11 13 11 10 8 8
4 4 4 4 4 5 4 4 4 4 4 4 4 4 4 4 4 4 4 4 3 3 2 2 3 7 5 4 4 3 2 2 4 5 6 6 8 9 10 11 14 12 12 12 11 9 8
4 4 4 4 4 4 4 4 4 4 4 4 4 4 4 4 4 4 5 6 5 6 4 6 6 6 5 2 2 4 2 3 5 6 9 8 11 13 10 9 9 9 11 11 10 7 10
4 4 4 4 4 5 4 4 4 4 4 4 4 4 4 4 4 4 6 6 6 7 9 5 4 4 3 2 5 4 2 6 7 9 7 9 11 8 7 7 8 9 10 11 8 7 8
4 4 4 4 5 4 5 4 4 4 4 4 4 4 4 4 4 4 4 4 3 4 9 6 5 5 4 4 5 5 4 5 7 8 8 10 8 6 8 8 9 10 11 11 9 8 8
4 4 4 5 4 4 5 5 4 4 4 4 4 4 4 4 5 5 6 3 4 4 11 8 6 5 5 4 6 3 3 5 7 8 8 9 6 7 8 9 9 11 8 9 9 10 14
5 5 5 4 4 4 5 4 4 4 4 4 4 4 4 5 7 6 4 3 3 5 17 7 6 3 5 6 6 5 3 5 7 7 8 9 8 8 9 9 7 9 7 9 10 11 12
5 5 5 4 5 4 5 5 4 4 4 4 4 4 4 4 6 4 2 3 5 11 15 8 6 7 8 6 6 5 5 4 5 7 7 8 6 7 8 7 7 7 8 10 10 12 16
5 5 5 4 4 4 4 4 4 4 4 4 4 5 5 4 5 3 2 5 11 14 7 8 8 7 8 9 7 7 7 8 9 11 11 8 8 7 6 9 8 9 12 15 16 16 16
5 5 5 4 4 4 4 4 4 4 4 5 5 5 4 3 2 2 3 8 15 9 9 7 8 8 8 9 9 7 8 9 7 8 10 11 12 8 7 9 10 10 10 14 18 18 15
4 5 4 4 4 4 4 4 4 4 5 5 5 4 2 2 2 1 6 12 11 9 7 7 9 10 9 8 8 8 9 9 7 8 11 12 11 7 7 7 8 10 12 10 13 12 14
4 4 4 4 4 4 4 4 4 4 5 5 7 5 3 0 0 3 8 10 9 6 6 7 12 10 11 9 9 9 9 7 7 7 7 9 12 8 6 7 8 10 8 13 13 17 18
5 5 5 4 4 4 4 4 4 4 5 5 6 5 2 0 1 6 11 9 7 5 5 7 8 10 10 9 9 9 9 8 6 6 7 8 10 10 8 10 11 11 11 12 11 13 17
5 5 5 5 5 4 5 5 4 5 5 6 7 8 1 1 8 7 10 7 6 6 5 7 7 8 8 9 10 10 9 8 6 6 9 8 10 13 11 7 7 8 10 10 15 15 14
5 5 5 5 5 5 5 5 5 5 5 8 9 6 2 2 11 9 7 7 6 7 7 8 9 7 6 8 11 9 8 6 6 7 8 8 11 14 14 10 8 10 9 10 11 13 15
5 5 5 5 5 5 5 5 5 5 5 7 7 9 5 5 6 9 9 8 9 5 6 7 8 8 10 10 8 9 8 7 6 6 7 7 11 12 14 13 10 11 10 9 11 15 15
5 6 5 5 5 5 5 5 4 5 5 6 6 9 7 10 10 10 8 8 9 9 6 6 8 9 11 13 11 11 10 8 7 6 8 9 13 11 10 9 9 10 10 10 11 11 14
6 6 6 5 5 5 4 4 4 5 5 5 8 9 9 10 8 9 9 9 8 7 8 8 10 9 9 12 11 12 10 11 10 8 10 9 14 12 12 9 9 10 10 10 9 9 10
6 6 6 6 5 5 5 4 4 4 5 7 6 6 9 9 10 10 10 10 9 8 6 7 7 9 9 8 7 7 7 8 8 10 11 12 13 14 15 10 10 12 11 10 9 8 9
7 6 6 6 6 6 5 5 4 4 5 7 7 6 10 12 11 10 9 8 9 8 9 7 6 8 6 4 5 6 7 7 7 8 8 12 12 13 16 13 17 11 8 8 9 8 8
6 6 6 6 6 6 5 5 5 4 4 7 7 7 9 12 10 9 10 9 8 8 9 7 5 5 4 6 10 11 11 10 9 8 10 10 12 15 17 17 13 10 9 9 10 10 8
6 6 6 6 6 6 5 5 5 4 4 6 7 4 7 11 11 9 10 9 11 11 10 8 6 5 5 8 10 15 16 12 13 11 9 10 10 14 15 18 20 11 8 6 7 13 7
6 6 6 6 6 5 5 5 5 4 4 5 6 4 6 10 8 8 11 11 9 9 11 9 9 7 6 10 12 14 14 10 14 14 14 13 14 15 16 17 14 9 8 7 14 13 6
6 6 6 5 5 5 5 5 5 4 4 5 7 5 5 9 8 7 7 9 9 9 12 10 11 8 8 12 13 13 14 12 13 12 13 14 15 16 15 17 18 8 9 11 10 7 7
5 5 5 5 5 4 4 4 4 4 3 3 7 4 3 6 8 6 6 5 6 7 9 9 10 10 8 10 10 11 13 12 13 16 10 15 12 14 13 14 9 7 8 6 6 7 7